Time,TemperatureF,DewpointF,PressureIn,WindDirection,WindDirectionDegrees,WindSpeedMPH,WindSpeedGustMPH,Humidity,HourlyPrecipIn,Conditions,Clouds,dailyrainin,SoftwareType,DateUTC
2013-04-01 00:22:00,57.0,53.0,30.10,WNW,300,18.0,-999.0,87,0.00,,,-99.99,,2013-04-01 07:22:00,
2013-04-01 00:32:00,57.0,53.0,30.10,WNW,300,18.0,-999.0,87,0.00,,,-99.99,,2013-04-01 07:32:00,
2013-04-01 00:42:00,57.0,53.0,30.10,WNW,300,18.0,-999.0,87,0.00,,,-99.99,,2013-04-01 07:42:00,
2013-04-01 01:22:00,57.0,53.0,30.10,WNW,300,11.0,-999.0,87,0.00,,,-99.99,,2013-04-01 08:22:00,
2013-04-01 01:32:00,57.0,53.0,30.10,WNW,300,11.0,-999.0,87,0.00,,,-99.99,,2013-04-01 08:32:00,
2013-04-01 01:43:00,57.0,53.0,30.10,WNW,300,11.0,-999.0,87,0.00,,,-99.99,,2013-04-01 08:43:00,
2013-04-01 02:22:00,56.0,52.0,30.10,West,280,13.0,-999.0,88,0.00,,,-99.99,,2013-04-01 09:22:00,
2013-04-01 02:33:00,56.0,52.0,30.10,West,280,13.0,-999.0,88,0.00,,,-99.99,,2013-04-01 09:33:00,
2013-04-01 02:42:00,56.0,52.0,30.10,West,280,13.0,-999.0,88,0.00,,,-99.99,,2013-04-01 09:42:00,
2013-04-01 03:23:00,56.0,52.0,30.10,West,280,11.0,-999.0,87,0.00,,,-99.99,,2013-04-01 10:23:00,
2013-04-01 03:33:00,56.0,52.0,30.10,West,280,11.0,-999.0,87,0.00,,,-99.99,,2013-04-01 10:33:00,
2013-04-01 03:42:00,56.0,52.0,30.10,West,280,11.0,-999.0,87,0.00,,,-99.99,,2013-04-01 10:42:00,
2013-04-01 04:23:00,56.0,51.0,30.10,WNW,300,5.0,-999.0,84,0.00,,,-99.99,,2013-04-01 11:23:00,
2013-04-01 04:32:00,56.0,51.0,30.10,WNW,300,5.0,-999.0,84,0.00,,,-99.99,,2013-04-01 11:32:00,
2013-04-01 04:42:00,56.0,51.0,30.10,WNW,300,5.0,-999.0,84,0.00,,,-99.99,,2013-04-01 11:42:00,
2013-04-01 05:22:00,57.0,53.0,30.10,NW,310,12.0,-999.0,85,0.00,,,-99.99,,2013-04-01 12:22:00,
2013-04-01 05:32:00,57.0,53.0,30.10,NW,310,12.0,-999.0,85,0.00,,,-99.99,,2013-04-01 12:32:00,
2013-04-01 05:42:00,57.0,53.0,30.10,NW,310,12.0,-999.0,85,0.00,,,-99.99,,2013-04-01 12:42:00,
2013-04-01 06:22:00,56.0,51.0,30.11,WNW,290,14.0,-999.0,84,0.00,,,-99.99,,2013-04-01 13:22:00,
2013-04-01 06:32:00,56.0,51.0,30.11,WNW,290,14.0,-999.0,84,0.00,,,-99.99,,2013-04-01 13:32:00,
2013-04-01 06:42:00,56.0,51.0,30.11,WNW,290,14.0,-999.0,84,0.00,,,-99.99,,2013-04-01 13:42:00,
2013-04-01 07:22:00,57.0,51.0,30.11,WNW,300,13.0,-999.0,81,0.00,,,-99.99,,2013-04-01 14:22:00,
2013-04-01 07:32:00,57.0,51.0,30.11,WNW,300,13.0,-999.0,81,0.00,,,-99.99,,2013-04-01 14:32:00,
2013-04-01 07:42:00,57.0,51.0,30.11,WNW,300,13.0,-999.0,81,0.00,,,-99.99,,2013-04-01 14:42:00,
2013-04-01 08:22:00,57.0,50.0,30.14,WNW,300,14.0,-999.0,77,0.00,,,-99.99,,2013-04-01 15:22:00,
2013-04-01 08:33:00,57.0,50.0,30.14,WNW,300,14.0,-999.0,77,0.00,,,-99.99,,2013-04-01 15:33:00,
2013-04-01 08:43:00,57.0,50.0,30.14,WNW,300,14.0,-999.0,77,0.00,,,-99.99,,2013-04-01 15:43:00,
2013-04-01 10:32:00,58.0,48.0,30.15,WNW,290,6.0,-999.0,70,0.00,,,-99.99,,2013-04-01 17:32:00,
2013-04-01 10:41:00,58.0,48.0,30.15,WNW,290,6.0,-999.0,70,0.00,,,-99.99,,2013-04-01 17:41:00,
2013-04-01 11:22:00,58.0,51.0,30.15,WNW,290,13.0,-999.0,78,0.00,,,-99.99,,2013-04-01 18:22:00,
2013-04-01 11:32:00,58.0,51.0,30.15,WNW,290,13.0,-999.0,78,0.00,,,-99.99,,2013-04-01 18:32:00,
2013-04-01 11:42:00,58.0,51.0,30.15,WNW,290,13.0,-999.0,78,0.00,,,-99.99,,2013-04-01 18:42:00,
2013-04-01 12:23:00,58.0,51.0,30.16,West,280,12.0,-999.0,77,0.00,,,-99.99,,2013-04-01 19:23:00,
2013-04-01 12:32:00,58.0,51.0,30.16,West,280,12.0,-999.0,77,0.00,,,-99.99,,2013-04-01 19:32:00,
2013-04-01 12:42:00,58.0,51.0,30.16,West,280,12.0,-999.0,77,0.00,,,-99.99,,2013-04-01 19:42:00,
2013-04-01 13:22:00,59.0,52.0,30.14,West,280,11.0,-999.0,77,0.00,,,-99.99,,2013-04-01 20:22:00,
2013-04-01 13:32:00,59.0,52.0,30.14,West,280,11.0,-999.0,77,0.00,,,-99.99,,2013-04-01 20:32:00,
2013-04-01 13:42:00,59.0,52.0,30.14,West,280,11.0,-999.0,77,0.00,,,-99.99,,2013-04-01 20:42:00,
2013-04-01 14:22:00,58.0,52.0,30.12,WNW,290,14.0,-999.0,79,0.00,,,-99.99,,2013-04-01 21:22:00,
2013-04-01 14:32:00,58.0,52.0,30.12,WNW,290,14.0,-999.0,79,0.00,,,-99.99,,2013-04-01 21:32:00,
2013-04-01 14:43:00,58.0,52.0,30.12,WNW,290,14.0,-999.0,79,0.00,,,-99.99,,2013-04-01 21:43:00,
2013-04-01 15:22:00,59.0,52.0,30.11,West,280,19.0,-999.0,77,0.00,,,-99.99,,2013-04-01 22:22:00,
2013-04-01 15:33:00,59.0,52.0,30.11,West,280,19.0,-999.0,77,0.00,,,-99.99,,2013-04-01 22:33:00,
2013-04-01 15:42:00,59.0,52.0,30.11,West,280,19.0,-999.0,77,0.00,,,-99.99,,2013-04-01 22:42:00,
2013-04-01 16:22:00,59.0,52.0,30.09,WNW,290,16.0,-999.0,79,0.00,,,-99.99,,2013-04-01 23:22:00,
2013-04-01 16:32:00,59.0,52.0,30.09,WNW,290,16.0,-999.0,79,0.00,,,-99.99,,2013-04-01 23:32:00,
2013-04-01 16:42:00,59.0,52.0,30.09,WNW,290,16.0,-999.0,79,0.00,,,-99.99,,2013-04-01 23:42:00,
2013-04-01 17:22:00,59.0,54.0,30.07,WNW,300,19.0,-999.0,83,0.00,,,-99.99,,2013-04-02 00:22:00,
2013-04-01 17:32:00,59.0,54.0,30.07,WNW,300,19.0,-999.0,83,0.00,,,-99.99,,2013-04-02 00:32:00,
2013-04-01 17:42:00,59.0,54.0,30.07,WNW,300,19.0,-999.0,83,0.00,,,-99.99,,2013-04-02 00:42:00,
2013-04-01 18:22:00,59.0,54.0,30.07,WNW,300,23.0,-999.0,84,0.00,,,-99.99,,2013-04-02 01:22:00,
2013-04-01 18:32:00,59.0,54.0,30.07,WNW,300,23.0,-999.0,84,0.00,,,-99.99,,2013-04-02 01:32:00,
2013-04-01 18:42:00,59.0,54.0,30.07,WNW,300,23.0,-999.0,84,0.00,,,-99.99,,2013-04-02 01:42:00,
2013-04-01 19:22:00,59.0,54.0,30.08,WNW,300,20.0,-999.0,84,0.00,,,-99.99,,2013-04-02 02:22:00,
2013-04-01 19:32:00,59.0,54.0,30.08,WNW,300,20.0,-999.0,84,0.00,,,-99.99,,2013-04-02 02:32:00,
2013-04-01 19:42:00,59.0,54.0,30.08,WNW,300,20.0,-999.0,84,0.00,,,-99.99,,2013-04-02 02:42:00,
2013-04-01 20:22:00,58.0,54.0,30.08,NW,310,15.0,-999.0,85,0.00,,,-99.99,,2013-04-02 03:22:00,
2013-04-01 20:33:00,58.0,54.0,30.08,NW,310,15.0,-999.0,85,0.00,,,-99.99,,2013-04-02 03:33:00,
2013-04-01 20:43:00,58.0,54.0,30.08,NW,310,15.0,-999.0,85,0.00,,,-99.99,,2013-04-02 03:43:00,
2013-04-01 21:22:00,58.0,54.0,30.07,WNW,300,11.0,-999.0,85,0.00,,,-99.99,,2013-04-02 04:22:00,
2013-04-01 21:32:00,58.0,54.0,30.07,WNW,300,11.0,-999.0,85,0.00,,,-99.99,,2013-04-02 04:32:00,
2013-04-01 21:42:00,58.0,54.0,30.07,WNW,300,11.0,-999.0,85,0.00,,,-99.99,,2013-04-02 04:42:00,
2013-04-01 22:22:00,58.0,54.0,30.07,NW,320,4.0,-999.0,85,0.00,,,-99.99,,2013-04-02 05:22:00,
2013-04-01 22:32:00,58.0,54.0,30.07,NW,320,4.0,-999.0,85,0.00,,,-99.99,,2013-04-02 05:32:00,
2013-04-01 22:42:00,58.0,54.0,30.07,NW,320,4.0,-999.0,85,0.00,,,-99.99,,2013-04-02 05:42:00,
2013-04-01 23:22:00,57.0,52.0,30.07,NNW,340,2.0,-999.0,83,0.00,,,-99.99,,2013-04-02 06:22:00,
2013-04-01 23:32:00,57.0,52.0,30.07,NNW,340,2.0,-999.0,83,0.00,,,-99.99,,2013-04-02 06:32:00,
2013-04-01 23:42:00,57.0,52.0,30.07,NNW,340,2.0,-999.0,83,0.00,,,-99.99,,2013-04-02 06:42:00,